This is the latest recevied weather packets stored in our database for station/object W9KHP-1. If no packets are shown the sender has not sent any weather packets the latest 10 day(s).
| Time | Temp. | Humidity | Pressure | Rain* | Wind** | Luminosity | Snow |
|---|---|---|---|---|---|---|---|
| 1777627406 | 10.56° C | 75% | 1016.1 hPa | 0 mm | - | 0 W/m² | - |
| 1777627104 | 11.11° C | 74% | 1016.1 hPa | 0 mm | - | 0 W/m² | - |
| 1777626800 | 11.11° C | 74% | 1016.3 hPa | 0 mm | - | 0 W/m² | - |
| 1777626497 | 11.11° C | 72% | 1016.6 hPa | 0 mm | - | 0 W/m² | - |
| 1777626197 | 11.67° C | 74% | 1016.3 hPa | 0 mm | - | 0 W/m² | - |
| 1777625895 | 11.11° C | 70% | 1016.3 hPa | 0 mm | - | 0 W/m² | - |
| 1777625591 | 11.11° C | 71% | 1016.4 hPa | 0 mm | - | 0 W/m² | - |
| 1777625287 | 11.11° C | 71% | 1016.3 hPa | 0 mm | - | 0 W/m² | - |
| 1777624984 | 11.11° C | 75% | 1016.5 hPa | 0 mm | - | 0 W/m² | - |
| 1777624681 | 11.11° C | 73% | 1016.1 hPa | 0 mm | - | 0 W/m² | - |
| 1777624376 | 10.56° C | 72% | 1016 hPa | 0 mm | - | 0 W/m² | - |
| 1777624073 | 10.56° C | 73% | 1016.2 hPa | 0 mm | - | 0 W/m² | - |
| 1777623770 | 10.56° C | 75% | 1015.9 hPa | 0 mm | - | 0 W/m² | - |
| 1777623466 | 10.56° C | 76% | 1016.2 hPa | 0 mm | - | 0 W/m² | - |
| 1777623164 | 10.56° C | 76% | 1016 hPa | 0 mm | - | 0 W/m² | - |
| 1777622861 | 10.56° C | 80% | 1015.8 hPa | 0 mm | - | 0 W/m² | - |
| 1777622557 | 10.56° C | 81% | 1016.1 hPa | 0 mm | - | 0 W/m² | - |
| 1777622254 | 10° C | 83% | 1016.4 hPa | 0 mm | - | 0 W/m² | - |
| 1777621952 | 10.56° C | 81% | 1016.5 hPa | 0 mm | - | 0 W/m² | - |
| 1777621647 | 10.56° C | 80% | 1016.7 hPa | 0 mm | - | 0 W/m² | - |
| 1777621343 | 10.56° C | 81% | 1016.6 hPa | 0 mm | - | 0 W/m² | - |
| 1777621038 | 10.56° C | 80% | 1017 hPa | 0 mm | - | 0 W/m² | - |
| 1777620735 | 10.56° C | 81% | 1016.6 hPa | 0 mm | - | 0 W/m² | - |
| 1777620431 | 10.56° C | 78% | 1016.8 hPa | 0 mm | - | 0 W/m² | - |
| 1777620128 | 10.56° C | 74% | 1017.1 hPa | 0 mm | - | 0 W/m² | - |
* Rain latest hour (hover to see other rain measurements)
** Current wind speed in m/s (hover to see current wind gust speed)